Regional Weather Roundup
Issued by NWS

Home | Current Version | Previous Version | Text Only | Print | Product List | Glossary Off
Versions: 1 2 3 4 5 6 7 8 9 10 11 12 13 14 15 16 17 18 19 20 21 22 23 24 25 26 27 28 29 30 31 32 33 34 35 36 37 38 39 40 41 42 43 44 45 46 47 48 49 50

000
ASUS43 KFSD 281402
RWRSD

WEATHER ROUNDUP FOR SOUTH DAKOTA
NATIONAL WEATHER SERVICE SIOUX FALLS SD
900 AM CDT THU JUL 28 2016

NOTE: "FAIR" INDICATES FEW OR NO CLOUDS BELOW 12,000 FEET WITH NO
SIGNIFICANT WEATHER AND/OR OBSTRUCTIONS TO VISIBILITY.


SDZ001>005-009-010-012>017-281500-
NORTHWEST AND NORTH CENTRAL SOUTH DAKOTA

CITY           SKY/WX    TMP DP  RH WIND       PRES   REMARKS
BUFFALO          N/A     62  61  96 E9        30.07F
FAITH            N/A     68  55  63 SE17      30.11F
MOBRIDGE       CLOUDY    66  58  75 E7        30.11F
$$

SDZ012>016-024>037-041>051-057-063-072>074-281500-
SOUTHWEST AND SOUTH CENTRAL SOUTH DAKOTA

CITY           SKY/WX    TMP DP  RH WIND       PRES   REMARKS
RAPID CTY ARPT PTSUNNY   66  60  81 NE5       30.12S
PIERRE         PTSUNNY   68  56  65 SE8       30.11R
CUSTER         CLOUDY    59  49  69 NW5       30.23R
ELLSWORTH AFB  MOSUNNY   65  61  87 N8        30.13R
PHILIP         MOSUNNY   64  62  93 SE8       30.10S
PINE RIDGE     LGT RAIN  64  61  90 E9        30.06F
WINNER         PTSUNNY   64  61  90 W6        30.14R
$$

SDZ004>011-016>023-039-040-281500-
NORTHEAST SOUTH DAKOTA

CITY           SKY/WX    TMP DP  RH WIND       PRES   REMARKS
ABERDEEN       CLOUDY    63  58  83 N9        30.11S
WATERTOWN      CLOUDY    64  61  90 NE6       30.10R
BROOKINGS      CLOUDY    65  62  90 NE8       30.09R
SISSETON         N/A     66  61  84 N3        30.09R
$$

SDZ017-020-022-023-036>040-048>070-281500-
SOUTHEAST SOUTH DAKOTA

CITY           SKY/WX    TMP DP  RH WIND       PRES   REMARKS
SIOUX FALLS    PTSUNNY   68  61  78 N6        30.08R
HURON          SUNNY     67  60  78 NW7       30.09S
CHAMBERLAIN    MOSUNNY   69  61  75 CALM      30.12F
MITCHELL       MOSUNNY   69  62  78 NW5       30.11R
YANKTON        CLOUDY    68  59  73 NW7       30.09S
$$

ABBREVIATIONS USED IN REMARKS
   TC - TEMPERATURE IN CELSIUS
  WCI - WIND CHILL INDEX
   HX - HEAT INDEX
  VSB - VISIBILITY





USA.gov is the U.S. government's official web portal to all federal, state and local government web resources and services.